******** Week 290 almanac for PRN-02 ******** ID: 02 Health: 000 Eccentricity: 0.1631546021E-001 Time of Applicability(s): 503808.0000 Orbital Inclination(rad): 0.9667458515 Rate of Right Ascen(r/s): -0.7977475151E-008 SQRT(A) (m 1/2): 5153.636230 Right Ascen at Week(rad): -0.8212508447E+000 Argument of Perigee(rad): -1.108865876 Mean Anom(rad): -0.1201510675E+001 Af0(s): -0.3242492676E-003 Af1(s/s): 0.7275957614E-011 week: 290 ******** Week 290 almanac for PRN-03 ******** ID: 03 Health: 000 Eccentricity: 0.5665302277E-002 Time of Applicability(s): 503808.0000 Orbital Inclination(rad): 0.9870351443 Rate of Right Ascen(r/s): -0.7394593729E-008 SQRT(A) (m 1/2): 5153.595703 Right Ascen at Week(rad): 0.3158644708E+000 Argument of Perigee(rad): 1.161976590 Mean Anom(rad): 0.1563369103E+001 Af0(s): 0.5874633789E-003 Af1(s/s): 0.1091393642E-010 week: 290 ******** Week 290 almanac for PRN-04 ******** ID: 04 Health: 000 Eccentricity: 0.3123283386E-002 Time of Applicability(s): 503808.0000 Orbital Inclination(rad): 0.9656253265 Rate of Right Ascen(r/s): -0.7931758961E-008 SQRT(A) (m 1/2): 5153.631348 Right Ascen at Week(rad): 0.1392769168E+001 Argument of Perigee(rad): -3.007837843 Mean Anom(rad): -0.1653215961E+001 Af0(s): 0.4720687866E-003 Af1(s/s): 0.7275957614E-011 week: 290 ******** Week 290 almanac for PRN-05 ******** ID: 05 Health: 000 Eccentricity: 0.5731105804E-002 Time of Applicability(s): 503808.0000 Orbital Inclination(rad): 0.9739423786 Rate of Right Ascen(r/s): -0.7497455156E-008 SQRT(A) (m 1/2): 5153.653320 Right Ascen at Week(rad): 0.2624908526E+000 Argument of Perigee(rad): 1.336927174 Mean Anom(rad): -0.1031298355E+001 Af0(s): -0.1916885376E-003 Af1(s/s): 0.0000000000E+000 week: 290 ******** Week 290 almanac for PRN-06 ******** ID: 06 Health: 000 Eccentricity: 0.3204822540E-002 Time of Applicability(s): 503808.0000 Orbital Inclination(rad): 0.9894859183 Rate of Right Ascen(r/s): -0.7714607059E-008 SQRT(A) (m 1/2): 5153.680664 Right Ascen at Week(rad): -0.7194077780E+000 Argument of Perigee(rad): -0.769011234 Mean Anom(rad): 0.3036154694E+001 Af0(s): -0.8201599121E-004 Af1(s/s): -0.2910383046E-010 week: 290 ******** Week 290 almanac for PRN-07 ******** ID: 07 Health: 000 Eccentricity: 0.1881456375E-001 Time of Applicability(s): 503808.0000 Orbital Inclination(rad): 0.9503334555 Rate of Right Ascen(r/s): -0.7886042771E-008 SQRT(A) (m 1/2): 5153.539551 Right Ascen at Week(rad): 0.2405062040E+001 Argument of Perigee(rad): -2.095612874 Mean Anom(rad): 0.2144312270E+001 Af0(s): -0.2288818359E-004 Af1(s/s): 0.3637978807E-011 week: 290 ******** Week 290 almanac for PRN-08 ******** ID: 08 Health: 000 Eccentricity: 0.9876728058E-002 Time of Applicability(s): 503808.0000 Orbital Inclination(rad): 0.9505431794 Rate of Right Ascen(r/s): -0.8354633718E-008 SQRT(A) (m 1/2): 5153.647949 Right Ascen at Week(rad): -0.1821295090E+001 Argument of Perigee(rad): 0.374418270 Mean Anom(rad): -0.1338319591E+001 Af0(s): 0.4014968872E-003 Af1(s/s): 0.1091393642E-010 week: 290 ******** Week 290 almanac for PRN-09 ******** ID: 09 Health: 000 Eccentricity: 0.3196239471E-002 Time of Applicability(s): 503808.0000 Orbital Inclination(rad): 0.9593815453 Rate of Right Ascen(r/s): -0.7988904198E-008 SQRT(A) (m 1/2): 5153.507324 Right Ascen at Week(rad): 0.1332003904E+001 Argument of Perigee(rad): 2.007128099 Mean Anom(rad): -0.8212920405E+000 Af0(s): 0.4243850708E-003 Af1(s/s): 0.1818989404E-010 week: 290 ******** Week 290 almanac for PRN-10 ******** ID: 10 Health: 000 Eccentricity: 0.9895324707E-002 Time of Applicability(s): 503808.0000 Orbital Inclination(rad): 0.9866696254 Rate of Right Ascen(r/s): -0.7348877539E-008 SQRT(A) (m 1/2): 5153.646484 Right Ascen at Week(rad): 0.3133283092E+000 Argument of Perigee(rad): -2.367454044 Mean Anom(rad): 0.6210086778E+000 Af0(s): -0.1802444458E-003 Af1(s/s): -0.1455191523E-010 week: 290 ******** Week 290 almanac for PRN-11 ******** ID: 11 Health: 000 Eccentricity: 0.1734256744E-002 Time of Applicability(s): 503808.0000 Orbital Inclination(rad): 0.9661466403 Rate of Right Ascen(r/s): -0.7943188009E-008 SQRT(A) (m 1/2): 5153.520020 Right Ascen at Week(rad): -0.6898696596E+000 Argument of Perigee(rad): -2.433352301 Mean Anom(rad): -0.2229708486E+001 Af0(s): -0.7476806641E-003 Af1(s/s): -0.3637978807E-011 week: 290 ******** Week 290 almanac for PRN-12 ******** ID: 12 Health: 000 Eccentricity: 0.8802890778E-002 Time of Applicability(s): 503808.0000 Orbital Inclination(rad): 0.9618742641 Rate of Right Ascen(r/s): -0.7703178011E-008 SQRT(A) (m 1/2): 5153.533203 Right Ascen at Week(rad): -0.2762536488E+001 Argument of Perigee(rad): 1.464963637 Mean Anom(rad): 0.1428709858E+001 Af0(s): -0.5493164062E-003 Af1(s/s): -0.3637978807E-011 week: 290 ******** Week 290 almanac for PRN-13 ******** ID: 13 Health: 000 Eccentricity: 0.8748054504E-002 Time of Applicability(s): 503808.0000 Orbital Inclination(rad): 0.9719170446 Rate of Right Ascen(r/s): -0.7908900866E-008 SQRT(A) (m 1/2): 5153.628418 Right Ascen at Week(rad): 0.1500364663E+001 Argument of Perigee(rad): 0.973861710 Mean Anom(rad): -0.1658745932E+001 Af0(s): 0.6837844849E-003 Af1(s/s): 0.0000000000E+000 week: 290 ******** Week 290 almanac for PRN-14 ******** ID: 14 Health: 000 Eccentricity: 0.4969596863E-002 Time of Applicability(s): 503808.0000 Orbital Inclination(rad): 0.9452221836 Rate of Right Ascen(r/s): -0.7851755629E-008 SQRT(A) (m 1/2): 5153.653320 Right Ascen at Week(rad): -0.2809450984E+001 Argument of Perigee(rad): -2.856962069 Mean Anom(rad): 0.1278400339E+001 Af0(s): 0.5302429199E-003 Af1(s/s): 0.7275957614E-011 week: 290 ******** Week 290 almanac for PRN-15 ******** ID: 15 Health: 000 Eccentricity: 0.1616907120E-001 Time of Applicability(s): 503808.0000 Orbital Inclination(rad): 0.9365755653 Rate of Right Ascen(r/s): -0.8206056101E-008 SQRT(A) (m 1/2): 5153.652344 Right Ascen at Week(rad): 0.1200005532E+001 Argument of Perigee(rad): 1.373772299 Mean Anom(rad): -0.2353823112E+001 Af0(s): 0.2231597900E-003 Af1(s/s): 0.3637978807E-011 week: 290 ******** Week 290 almanac for PRN-16 ******** ID: 16 Health: 000 Eccentricity: 0.1415252686E-001 Time of Applicability(s): 503808.0000 Orbital Inclination(rad): 0.9612630686 Rate of Right Ascen(r/s): -0.7703178011E-008 SQRT(A) (m 1/2): 5153.603027 Right Ascen at Week(rad): -0.2744869868E+001 Argument of Perigee(rad): 0.850160915 Mean Anom(rad): -0.3608832116E+000 Af0(s): -0.1392364502E-003 Af1(s/s): 0.1091393642E-010 week: 290 ******** Week 290 almanac for PRN-17 ******** ID: 17 Health: 000 Eccentricity: 0.1354408264E-001 Time of Applicability(s): 503808.0000 Orbital Inclination(rad): 0.9662844589 Rate of Right Ascen(r/s): -0.8183198006E-008 SQRT(A) (m 1/2): 5153.515137 Right Ascen at Week(rad): -0.1724035989E+001 Argument of Perigee(rad): -1.278629537 Mean Anom(rad): -0.1412896674E+001 Af0(s): 0.5750656128E-003 Af1(s/s): -0.1455191523E-010 week: 290 ******** Week 290 almanac for PRN-18 ******** ID: 18 Health: 000 Eccentricity: 0.4790306091E-002 Time of Applicability(s): 503808.0000 Orbital Inclination(rad): 0.9743618264 Rate of Right Ascen(r/s): -0.7851755629E-008 SQRT(A) (m 1/2): 5153.683105 Right Ascen at Week(rad): -0.7175831797E+000 Argument of Perigee(rad): -2.960315897 Mean Anom(rad): 0.2921016628E+001 Af0(s): -0.6599426270E-003 Af1(s/s): 0.0000000000E+000 week: 290 ******** Week 290 almanac for PRN-19 ******** ID: 19 Health: 000 Eccentricity: 0.9974479675E-002 Time of Applicability(s): 503808.0000 Orbital Inclination(rad): 0.9654755237 Rate of Right Ascen(r/s): -0.8228914196E-008 SQRT(A) (m 1/2): 5153.694824 Right Ascen at Week(rad): -0.1679773752E+001 Argument of Perigee(rad): 2.672410623 Mean Anom(rad): 0.4727937763E+000 Af0(s): 0.5578994751E-003 Af1(s/s): 0.3637978807E-011 week: 290 ******** Week 290 almanac for PRN-20 ******** ID: 20 Health: 000 Eccentricity: 0.3848552704E-002 Time of Applicability(s): 503808.0000 Orbital Inclination(rad): 0.9562896153 Rate of Right Ascen(r/s): -0.7657461821E-008 SQRT(A) (m 1/2): 5153.583496 Right Ascen at Week(rad): 0.1309976899E+000 Argument of Perigee(rad): -2.482449423 Mean Anom(rad): -0.2933382850E+001 Af0(s): 0.3690719604E-003 Af1(s/s): 0.0000000000E+000 week: 290 ******** Week 290 almanac for PRN-21 ******** ID: 21 Health: 000 Eccentricity: 0.2549552917E-001 Time of Applicability(s): 503808.0000 Orbital Inclination(rad): 0.9609814393 Rate of Right Ascen(r/s): -0.8046049436E-008 SQRT(A) (m 1/2): 5153.589844 Right Ascen at Week(rad): -0.8293847629E+000 Argument of Perigee(rad): -0.498642251 Mean Anom(rad): -0.1537249860E+001 Af0(s): 0.9822845459E-004 Af1(s/s): 0.0000000000E+000 week: 290 ******** Week 290 almanac for PRN-22 ******** ID: 22 Health: 000 Eccentricity: 0.1388216019E-001 Time of Applicability(s): 503808.0000 Orbital Inclination(rad): 0.9606159205 Rate of Right Ascen(r/s): -0.7691748964E-008 SQRT(A) (m 1/2): 5153.644531 Right Ascen at Week(rad): -0.2741577952E+001 Argument of Perigee(rad): -1.095098623 Mean Anom(rad): -0.8695446496E+000 Af0(s): -0.7629394531E-004 Af1(s/s): -0.3637978807E-011 week: 290 ******** Week 290 almanac for PRN-23 ******** ID: 23 Health: 000 Eccentricity: 0.4869937897E-002 Time of Applicability(s): 503808.0000 Orbital Inclination(rad): 0.9818040301 Rate of Right Ascen(r/s): -0.7417451824E-008 SQRT(A) (m 1/2): 5153.579590 Right Ascen at Week(rad): 0.2835935746E+000 Argument of Perigee(rad): -2.917961025 Mean Anom(rad): 0.1787519050E+001 Af0(s): 0.3538131714E-003 Af1(s/s): 0.7275957614E-011 week: 290 ******** Week 290 almanac for PRN-24 ******** ID: 24 Health: 000 Eccentricity: 0.1622915268E-001 Time of Applicability(s): 503808.0000 Orbital Inclination(rad): 0.9339869727 Rate of Right Ascen(r/s): -0.8114623721E-008 SQRT(A) (m 1/2): 5153.632324 Right Ascen at Week(rad): 0.2305257789E+001 Argument of Perigee(rad): 1.025492372 Mean Anom(rad): 0.3044288987E+001 Af0(s): -0.4825592041E-003 Af1(s/s): 0.0000000000E+000 week: 290 ******** Week 290 almanac for PRN-25 ******** ID: 25 Health: 000 Eccentricity: 0.1198339462E-001 Time of Applicability(s): 503808.0000 Orbital Inclination(rad): 0.9499559524 Rate of Right Ascen(r/s): -0.7794610391E-008 SQRT(A) (m 1/2): 5153.671387 Right Ascen at Week(rad): -0.2850845995E+001 Argument of Perigee(rad): 1.095605331 Mean Anom(rad): 0.1253340950E+001 Af0(s): 0.4997253418E-003 Af1(s/s): 0.0000000000E+000 week: 290 ******** Week 290 almanac for PRN-26 ******** ID: 26 Health: 000 Eccentricity: 0.9480953217E-002 Time of Applicability(s): 503808.0000 Orbital Inclination(rad): 0.9307332557 Rate of Right Ascen(r/s): -0.7943188009E-008 SQRT(A) (m 1/2): 5153.674805 Right Ascen at Week(rad): -0.2916255145E+001 Argument of Perigee(rad): 0.571368520 Mean Anom(rad): 0.5017308109E+000 Af0(s): 0.4100799561E-004 Af1(s/s): -0.1091393642E-010 week: 290 ******** Week 290 almanac for PRN-27 ******** ID: 27 Health: 000 Eccentricity: 0.1277017593E-001 Time of Applicability(s): 503808.0000 Orbital Inclination(rad): 0.9595732929 Rate of Right Ascen(r/s): -0.8286059433E-008 SQRT(A) (m 1/2): 5153.629883 Right Ascen at Week(rad): -0.1793440381E+001 Argument of Perigee(rad): 0.798899891 Mean Anom(rad): -0.1281588517E+001 Af0(s): -0.3433227539E-004 Af1(s/s): 0.0000000000E+000 week: 290 ******** Week 290 almanac for PRN-28 ******** ID: 28 Health: 000 Eccentricity: 0.4649162292E-003 Time of Applicability(s): 503808.0000 Orbital Inclination(rad): 0.9613649345 Rate of Right Ascen(r/s): -0.7794610391E-008 SQRT(A) (m 1/2): 5153.693359 Right Ascen at Week(rad): 0.2373789205E+001 Argument of Perigee(rad): 1.400413231 Mean Anom(rad): 0.9729059678E+000 Af0(s): -0.4653930664E-003 Af1(s/s): -0.1091393642E-010 week: 290 ******** Week 290 almanac for PRN-29 ******** ID: 29 Health: 000 Eccentricity: 0.2871513367E-002 Time of Applicability(s): 503808.0000 Orbital Inclination(rad): 0.9687592013 Rate of Right Ascen(r/s): -0.8194627053E-008 SQRT(A) (m 1/2): 5153.699219 Right Ascen at Week(rad): -0.1708609670E+001 Argument of Perigee(rad): 2.679137893 Mean Anom(rad): -0.1446305697E+001 Af0(s): -0.5674362183E-003 Af1(s/s): 0.3637978807E-011 week: 290 ******** Week 290 almanac for PRN-30 ******** ID: 30 Health: 000 Eccentricity: 0.7138252258E-002 Time of Applicability(s): 503808.0000 Orbital Inclination(rad): 0.9354909930 Rate of Right Ascen(r/s): -0.8046049436E-008 SQRT(A) (m 1/2): 5153.724609 Right Ascen at Week(rad): 0.2403312717E+001 Argument of Perigee(rad): -2.461177798 Mean Anom(rad): 0.2011087013E+001 Af0(s): -0.2908706665E-003 Af1(s/s): 0.7275957614E-011 week: 290 ******** Week 290 almanac for PRN-31 ******** ID: 31 Health: 000 Eccentricity: 0.1070451736E-001 Time of Applicability(s): 503808.0000 Orbital Inclination(rad): 0.9542822576 Rate of Right Ascen(r/s): -0.7851755629E-008 SQRT(A) (m 1/2): 5153.532715 Right Ascen at Week(rad): 0.2427243342E+001 Argument of Perigee(rad): 0.762693675 Mean Anom(rad): 0.1083816973E+001 Af0(s): -0.2222061157E-003 Af1(s/s): 0.0000000000E+000 week: 290 ******** Week 290 almanac for PRN-32 ******** ID: 32 Health: 000 Eccentricity: 0.7971763611E-002 Time of Applicability(s): 503808.0000 Orbital Inclination(rad): 0.9627011756 Rate of Right Ascen(r/s): -0.7966046104E-008 SQRT(A) (m 1/2): 5153.682617 Right Ascen at Week(rad): 0.1347252707E+001 Argument of Perigee(rad): -2.134226422 Mean Anom(rad): -0.6494157849E+000 Af0(s): -0.5798339844E-003 Af1(s/s): 0.3637978807E-011 week: 290